TimeCDT,TemperatureF,Dew PointF,Humidity,Sea Level PressureIn,VisibilityMPH,Wind Direction,Wind SpeedMPH,Gust SpeedMPH,PrecipitationIn,Events,Conditions,WindDirDegrees,DateUTC
12:54 AM,66.0,62.1,87,30.06,7.0,ESE,4.6,-,N/A,,Clear,120,2013-07-04 05:54:00
1:54 AM,64.9,61.0,87,30.05,8.0,Calm,Calm,-,N/A,,Clear,0,2013-07-04 06:54:00
2:54 AM,64.9,63.0,93,30.04,6.0,Calm,Calm,-,N/A,,Clear,0,2013-07-04 07:54:00
3:54 AM,63.0,61.0,93,30.04,7.0,ESE,5.8,-,N/A,,Clear,110,2013-07-04 08:54:00
4:54 AM,63.0,60.1,90,30.06,8.0,ESE,5.8,-,N/A,,Clear,120,2013-07-04 09:54:00
5:54 AM,62.1,60.1,93,30.06,5.0,ESE,5.8,-,N/A,,Clear,110,2013-07-04 10:54:00
6:54 AM,66.0,63.0,90,30.07,4.0,Calm,Calm,-,N/A,,Clear,0,2013-07-04 11:54:00
7:54 AM,70.0,62.1,76,30.08,9.0,Calm,Calm,-,N/A,,Clear,0,2013-07-04 12:54:00
8:54 AM,73.0,61.0,66,30.09,9.0,Calm,Calm,-,N/A,,Clear,0,2013-07-04 13:54:00
9:54 AM,75.9,62.1,62,30.08,10.0,Variable,3.5,-,N/A,,Clear,0,2013-07-04 14:54:00
10:54 AM,79.0,60.1,52,30.08,10.0,South,5.8,-,N/A,,Clear,190,2013-07-04 15:54:00
11:54 AM,80.1,60.1,50,30.07,10.0,ESE,5.8,-,N/A,,Clear,110,2013-07-04 16:54:00
12:54 PM,82.0,59.0,45,30.06,10.0,Variable,4.6,-,N/A,,Clear,0,2013-07-04 17:54:00
1:54 PM,82.9,62.1,49,30.05,9.0,ESE,6.9,-,N/A,,Clear,110,2013-07-04 18:54:00
2:54 PM,82.0,59.0,45,30.04,10.0,ESE,6.9,-,N/A,,Clear,120,2013-07-04 19:54:00
3:54 PM,84.0,60.1,44,30.02,10.0,SE,6.9,-,N/A,,Clear,140,2013-07-04 20:54:00
4:54 PM,84.0,57.9,41,30.01,10.0,East,4.6,-,N/A,,Clear,90,2013-07-04 21:54:00
5:54 PM,82.9,57.9,42,29.99,10.0,ESE,5.8,-,N/A,,Clear,110,2013-07-04 22:54:00
6:54 PM,82.0,59.0,45,30.00,10.0,ESE,8.1,-,N/A,,Clear,120,2013-07-04 23:54:00
7:54 PM,78.1,61.0,56,30.00,10.0,ESE,6.9,-,N/A,,Clear,120,2013-07-05 00:54:00
8:54 PM,73.0,63.0,71,30.01,10.0,East,4.6,-,N/A,,Clear,80,2013-07-05 01:54:00
9:54 PM,71.1,64.0,78,30.02,9.0,Calm,Calm,-,N/A,,Clear,0,2013-07-05 02:54:00
10:54 PM,71.1,64.0,78,30.02,10.0,Calm,Calm,-,N/A,,Clear,0,2013-07-05 03:54:00
11:54 PM,66.9,63.0,87,30.03,8.0,East,5.8,-,N/A,,Clear,90,2013-07-05 04:54:00